Location: Newark
(49.8969°N, 3.3422°E)
Time: 01:12:15
(UTC+00:00)

Explorer 7 - Pass Details

Date: 27 January 2020
Orbit: 485 x 679 km, 50.3° (Epoch: 27 February)

Event Time Altitude Azimuth Distance (km) Brightness Sun altitude
Rises 03:41:23 0° 283° (WNW) 2,569 - -36.1°
Reaches altitude 10° 03:43:48 10° 270° (W) 1,701 - -35.7°
Maximum altitude 03:46:56 24° 215° (SW) 1,085 - -35.3°
Drops below altitude 10° 03:50:10 10° 160° (SSE) 1,760 - -34.7°
Sets 03:52:43 0° 147° (SSE) 2,681 - -34.3°
